| time (UTC) | temp F | wind direction | speed MPH | gust MPH | rain 1hr in | rain 24hr in | rain mn in | humidity % | barometer mb |
| 20260504023026 | 56 | 13 | 5.0 | 10.0 | 0.00 | 0.00 | 0.00 | 44 | 1010.4 |
| 20260504021526 | 59 | 14 | 11.0 | 16.0 | 0.00 | 0.00 | 0.00 | 40 | 1010.4 |
| 20260504020034 | 61 | 3 | 11.0 | 20.0 | 0.00 | 0.00 | 0.00 | 38 | 1010.4 |
| 20260504014525 | 63 | 354 | 12.0 | 21.0 | 0.00 | 0.00 | 0.00 | 37 | 1010.2 |
| 20260504013030 | 65 | 310 | 9.0 | 16.0 | 0.00 | 0.00 | 0.00 | 34 | 1010.1 |
| 20260504011522 | 67 | 325 | 12.0 | 17.0 | 0.00 | 0.00 | 0.00 | 29 | 1010.1 |
| 20260504010022 | 68 | 330 | 11.0 | 17.0 | 0.00 | 0.00 | 0.00 | 27 | 1010.0 |
| 20260504004535 | 70 | 333 | 11.0 | 20.0 | 0.00 | 0.00 | 0.00 | 26 | 1010.0 |
| 20260504003018 | 71 | 300 | 11.0 | 20.0 | 0.00 | 0.00 | 0.00 | 24 | 1010.0 |
| 20260504001529 | 70 | 329 | 14.0 | 20.0 | 0.00 | 0.00 | 0.00 | 24 | 1010.1 |
| 20260504000016 | 70 | 295 | 14.0 | 24.0 | 0.00 | 0.00 | 0.00 | 24 | 1010.3 |
| 20260503234517 | 70 | 300 | 14.0 | 19.0 | 0.00 | 0.00 | 0.00 | 23 | 1010.4 |
| 20260503233013 | 71 | 290 | 14.0 | 24.0 | 0.00 | 0.00 | 0.00 | 23 | 1010.4 |
| 20260503231510 | 71 | 304 | 15.0 | 21.0 | 0.00 | 0.00 | 0.00 | 22 | 1010.5 |
| 20260503230008 | 71 | 292 | 12.0 | 23.0 | 0.00 | 0.00 | 0.00 | 24 | 1010.6 |
| 20260503224505 | 71 | 300 | 12.0 | 21.0 | 0.00 | 0.00 | 0.00 | 25 | 1010.7 |
| 20260503223009 | 70 | 318 | 12.0 | 23.0 | 0.00 | 0.00 | 0.00 | 23 | 1010.8 |
| 20260503221503 | 70 | 307 | 13.0 | 22.0 | 0.00 | 0.00 | 0.00 | 23 | 1010.9 |
| 20260503220003 | 71 | 305 | 13.0 | 21.0 | 0.00 | 0.00 | 0.00 | 24 | 1011.0 |
| 20260503214600 | 70 | 284 | 14.0 | 21.0 | 0.00 | 0.00 | 0.00 | 24 | 1011.2 |
| 20260503213058 | 70 | 300 | 16.0 | 22.0 | 0.00 | 0.00 | 0.00 | 22 | 1011.3 |
| 20260503211556 | 70 | 313 | 18.0 | 23.0 | 0.00 | 0.00 | 0.00 | 22 | 1011.7 |
| 20260503210053 | 69 | 295 | 12.0 | 22.0 | 0.00 | 0.00 | 0.00 | 24 | 1011.8 |
| 20260503204552 | 69 | 304 | 13.0 | 25.0 | 0.00 | 0.00 | 0.00 | 25 | 1011.7 |
| 20260503203050 | 69 | 308 | 12.0 | 20.0 | 0.00 | 0.00 | 0.00 | 26 | 1012.0 |
| 20260503201551 | 69 | 293 | 13.0 | 21.0 | 0.00 | 0.00 | 0.00 | 23 | 1012.2 |
| 20260503200047 | 69 | 285 | 16.0 | 24.0 | 0.00 | 0.00 | 0.00 | 26 | 1012.3 |
| 20260503194553 | 68 | 288 | 15.0 | 22.0 | 0.00 | 0.00 | 0.00 | 26 | 1012.4 |
| 20260503193041 | 68 | 279 | 14.0 | 24.0 | 0.00 | 0.00 | 0.00 | 26 | 1012.7 |
| 20260503191539 | 67 | 304 | 13.0 | 22.0 | 0.00 | 0.00 | 0.00 | 25 | 1013.1 |
| 20260503190045 | 66 | 305 | 13.0 | 19.0 | 0.00 | 0.00 | 0.00 | 27 | 1013.2 |
| 20260503184535 | 66 | 298 | 12.0 | 18.0 | 0.00 | 0.00 | 0.00 | 27 | 1013.4 |
| 20260503183038 | 65 | 295 | 11.0 | 16.0 | 0.00 | 0.00 | 0.00 | 27 | 1013.6 |
| 20260503181549 | 65 | 304 | 13.0 | 16.0 | 0.00 | 0.00 | 0.00 | 29 | 1013.7 |
| 20260503180041 | 65 | 273 | 9.0 | 14.0 | 0.00 | 0.00 | 0.00 | 31 | 1013.8 |
| 20260503174524 | 63 | 259 | 9.0 | 15.0 | 0.00 | 0.00 | 0.00 | 33 | 1014.1 |
| 20260503173023 | 64 | 294 | 9.0 | 18.0 | 0.00 | 0.00 | 0.00 | 34 | 1014.2 |
| 20260503171525 | 63 | 293 | 9.0 | 16.0 | 0.00 | 0.00 | 0.00 | 33 | 1014.4 |
| 20260503120142 | 52 | 252 | 6.0 | 10.0 | 0.00 | 0.00 | 0.00 | 56 | 1014.4 |
| 20260503081511 | 39 | 13 | 0.0 | 7.0 | 0.00 | 0.00 | 0.00 | 83 | 1016.0 |
| 20260503071501 | 38 | 82 | 2.0 | 3.0 | 0.00 | 0.00 | 0.00 | 83 | 1016.4 |
| 20260503054546 | 41 | 239 | 0.0 | 0.0 | 0.00 | 0.00 | 0.00 | 77 | 1016.7 |
| 20260503053047 | 42 | 239 | 0.0 | 2.0 | 0.00 | 0.00 | 0.00 | 75 | 1016.9 |
| 20260503051545 | 43 | 356 | 0.0 | 2.0 | 0.00 | 0.00 | 0.00 | 73 | 1017.0 |
| 20260503050045 | 43 | 62 | 2.0 | 3.0 | 0.00 | 0.00 | 0.00 | 74 | 1017.1 |
| 20260503044600 | 44 | 39 | 2.0 | 2.0 | 0.00 | 0.00 | 0.00 | 75 | 1017.1 |
| 20260503043045 | 46 | 231 | 0.0 | 2.0 | 0.00 | 0.00 | 0.00 | 67 | 1017.1 |
| 20260503041602 | 49 | 79 | 3.0 | 5.0 | 0.00 | 0.00 | 0.00 | 62 | 1017.0 |
| 20260503040051 | 51 | 98 | 1.0 | 2.0 | 0.00 | 0.00 | 0.00 | 61 | 1016.9 |
| 20260503034542 | 52 | 121 | 2.0 | 3.0 | 0.00 | 0.00 | 0.00 | 60 | 1016.9 |
| 20260503033048 | 54 | 153 | 0.0 | 5.0 | 0.00 | 0.00 | 0.00 | 57 | 1016.8 |
| 20260503031542 | 53 | 82 | 0.0 | 1.0 | 0.00 | 0.00 | 0.00 | 68 | 1017.1 |
| 20260503030041 | 53 | 82 | 0.0 | 0.0 | 0.00 | 0.00 | 0.00 | 62 | 1016.9 |
| 20260503024541 | 54 | 82 | 0.0 | 0.0 | 0.00 | 0.00 | 0.00 | 61 | 1016.9 |